Regional Weather Roundup
Issued by NWS

Home | Current Version | Previous Version | Text Only | Print | Product List | Glossary On
Versions: 1 2 3 4 5 6 7 8 9 10 11 12 13 14 15 16 17 18 19 20 21 22 23 24 25 26 27 28 29 30 31 32 33 34 35 36 37 38 39 40 41 42 43 44 45 46 47 48 49 50
000
ASUS43 KDMX 251006
RWRIA

WEATHER ROUNDUP FOR IOWA
NATIONAL WEATHER SERVICE DES MOINES IA
400 AM CST TUE FEB 25 2020

NOTE: "FAIR" INDICATES FEW OR NO CLOUDS BELOW 12,000 FEET WITH NO
SIGNIFICANT WEATHER AND/OR OBSTRUCTIONS TO VISIBILITY.

* - THESE STATIONS ARE NOT NWS STATIONS...THUS NOT UNDER NWS
QUALITY CONTROL.  THEY ALSO DO NOT REPORT WEATHER SUCH
AS PRECIPITATION OR FOG.

IAZ001>003-012>014-020>022-031>034-043>046-251100-
   NORTHWEST IOWA

CITY           SKY/WX    TMP DP  RH WIND       PRES   REMARKS
CARROLL *      CLOUDY    32  28  86 N13       29.97R WCI  22
CHEROKEE *     CLEAR     31  24  77 N8        30.02R WCI  23
DENISON *      CLOUDY    32  30  93 NE9       30.00R WCI  24
LE MARS *      CLOUDY    30  27  86 N12       30.04R WCI  21
SHELDON *      CLOUDY    28  25  86 NE14      30.03R WCI  17
SIOUX CITY     CLOUDY    32  25  75 N9        30.04R WCI  24
SPENCER        CLEAR     30  22  72 NE14      30.03R WCI  19
STORM LAKE *   CLOUDY    30  28  93 NE13G18   29.97R WCI  20
$$

IAZ055>058-069>071-079>083-090>094-251100-
   SOUTHWEST IOWA

CITY           SKY/WX    TMP DP  RH WIND       PRES   REMARKS
ATLANTIC *     CLOUDY    32  30  93 NE10      29.95S WCI  24
AUDUBON *      CLEAR     32  27  80 N10       29.97R WCI  24
CLARINDA *     CLOUDY    30  28  93 N7        29.96R WCI  23
COUNCIL BLFS * CLOUDY    32  32 100 N8        29.95R WCI  25
CRESTON *      CLOUDY    32  28  86 N13       29.92R WCI  22
HARLAN  *      MOCLDY    32  27  80 N9        29.97R WCI  24
LAMONI         MOCLDY    32  25  75 N12       29.90R WCI  23
RED OAK *      CLOUDY    32  28  86 N8        29.96R WCI  25
SHENANDOAH *     N/A    N/A N/A N/A MISG        N/A
$$

IAZ047>049-059>061-072>074-084-251100-
   CENTRAL IOWA

CITY           SKY/WX    TMP DP  RH WIND       PRES   REMARKS
AMES           CLEAR     33  25  72 N9        29.96S WCI  25
ANKENY *       CLEAR     32  27  80 N7        29.97R WCI  26
BOONE *        CLOUDY    32  32 100 N13       29.95R WCI  22
CHARITON *     CLOUDY    32  32 100 N9        29.91R WCI  24
DES MOINES     CLOUDY    32  24  72 N10       29.95R WCI  24
GRINNELL*      CLEAR     32  26  77 N13       29.94R WCI  22
KNOXVILLE *    CLOUDY    32  27  80 N9        29.92R WCI  24
MARSHALLTOWN   CLEAR     31  26  82 NE14      29.95R WCI  21
NEWTON *       CLOUDY    32  27  80 NE12      29.93R WCI  23
PELLA *        CLEAR     32  26  79 NE7       29.94R WCI  26
PERRY *        FAIR      33  26  75 N9        29.96R WCI  25
$$

IAZ004>006-015-016-023>025-035-036-251100-
   NORTH CENTRAL IOWA

CITY           SKY/WX    TMP DP  RH WIND       PRES   REMARKS
ALGONA *       CLEAR     30  28  93 NE12      30.00R WCI  21
CLARION *      MOCLDY    32  27  80 NE14      29.99R WCI  22
ESTHERVILLE    CLEAR     27  21  78 NE12      30.03R WCI  17
FORT DODGE *   CLEAR     31  26  82 NE10      30.00R WCI  22
MASON CITY     CLEAR     29  21  72 NE9       30.02R WCI  20
FOREST CITY *  FAIR      32  23  69 NE13      30.01R WCI  22
IOWA FALLS *   FAIR      32  22  67 N14       29.97S WCI  22
$$

IAZ007>011-017>019-026>030-037>042-050>054-066-251100-
   NORTHEAST IOWA

CITY           SKY/WX    TMP DP  RH WIND       PRES   REMARKS
CEDAR RAPIDS   FAIR      32  25  75 N13       29.92R WCI  22
CHARLES CITY * FAIR      27  21  80 NE12      30.00R WCI  16
CLINTON *      MOCLDY    33  27  78 NE17      29.90S WCI  22
DECORAH *      FAIR      30  23  74 NE7G14    29.99R WCI  23
DUBUQUE        FAIR      31  24  75 NE14      29.93R WCI  21
MONTICELLO *   FAIR      32  27  80 NE10      29.93R WCI  24
OELWEIN *      MOCLDY    30  27  86 NE15      29.96S WCI  19
WATERLOO       FAIR      32  23  69 N8        29.97S WCI  25
$$

IAZ064-065-067-068-078-251100-
   EAST CENTRAL IOWA

CITY           SKY/WX    TMP DP  RH WIND       PRES   REMARKS
DAVENPORT      MOCLDY    33  25  72 NE13      29.90S WCI  24
IOWA CITY      FAIR      35  24  64 N12       29.93R WCI  27
MT. PLEASANT * CLOUDY    34  30  86 CALM      29.88R
MUSCATINE *    CLOUDY    34  27  75 N12       29.91R WCI  25
QUAD CITIES    MOCLDY    35  26  69 NE12G18   29.87S WCI  27
$$

IAZ062-063-075>077-085>089-095>099-251100-
   SOUTHEAST IOWA

CITY           SKY/WX    TMP DP  RH WIND       PRES   REMARKS
BURLINGTON     CLOUDY    34  26  72 MISG      29.84S
FAIRFIELD *    CLOUDY    32  28  86 N13       29.90R WCI  22
FORT MADISON *   N/A     34  28  80 N8        29.86R WCI  27
KEOKUK *       CLOUDY    34  30  86 N8        29.85R WCI  27
OSKALOOSA *    CLOUDY    34  29  80 N12       29.92R WCI  26
OTTUMWA        MOCLDY    32  26  78 N10       29.90S WCI  24
WASHINGTON *   PTCLDY    32  30  93 N12       29.89R WCI  23
$$

ABBREVIATIONS USED IN REMARKS
   TC - TEMPERATURES IN CELSIUS
  WCI - WIND CHILL INDEX
   HX - HEAT INDEX
  VSB - VISIBILITY
$$





USA.gov is the U.S. government's official web portal to all federal, state and local government web resources and services.